Weather History for Glenwood, MN

Change the Weather History Date:

Friday, February 10, 2012

  Actual Average Record
Temperature  
Mean Temperature 2 °F -  
Max Temperature 10 °F 23 °F 43 °F (1976)
Min Temperature -5 °F 3 °F -23 °F (1986)
Degree Days  
Heating Degree Days 62    
Moisture  
Dew Point -11 °F    
Average Humidity 57    
Maximum Humidity 77    
Minimum Humidity 34    
Precipitation  
Precipitation 0.00 in - - ()
Sea Level Pressure  
Sea Level Pressure 30.36 in    
Wind  
Wind Speed 17 mph (NNW)    
Max Wind Speed 21 mph    
Max Gust Speed 26 mph    
Visibility 10 miles    
Events      
Averages and records for this station are not official NWS values.
T = Trace of Precipitation, MM = Missing Value Source: NWS Daily Summary

Daily Weather History Graph

Daily Weather History Graph

Search for Another Location

Airport:

Trip Planner

Search our weather history database for the weather conditions in past years. The results will help you decide how hot, cold, wet, or windy it might be!

Date:

Astronomy

Feb. 10, 2012 Rise Set
Actual Time 7:31 AM CST 5:40 PM CST
Civil Twilight 7:00 AM CST 6:11 PM CST
Nautical Twilight 6:25 AM CST 6:46 PM CST
Astronomical Twilight 5:51 AM CST 7:20 PM CST
Moon 9:34 PM CST (2/10) 8:27 AM CST (2/10)
Length of Visible Light 11h 10m
Length of Day
10h 08m
Waning Gibbous, 90% of the Moon is Illuminated
Feb 10
Waning Gibbous
Feb 14
Last Quarter
Feb 21
New
Feb 29
First Quarter
Mar 8
Full

Hourly Weather History & Observations

Time (CST) Temp. Windchill Dew Point Humidity Pressure Visibility Wind Dir Wind Speed Gust Speed Precip Events Conditions
12:14 AM 6.8 °F -12.9 °F -4.0 °F 61% 30.12 in 10.0 mi NNW 19.6 mph 24.2 mph N/A   Clear
12:33 AM 5.0 °F -14.7 °F -5.8 °F 61% 30.12 in 10.0 mi NW 18.4 mph 24.2 mph N/A   Clear
12:53 AM 5.0 °F -13.0 °F -5.8 °F 61% 30.13 in 10.0 mi NNW 15.0 mph 20.7 mph N/A   Clear
1:14 AM 5.0 °F -15.2 °F -7.6 °F 56% 30.13 in 10.0 mi NNW 19.6 mph 25.3 mph N/A   Clear
1:34 AM 3.2 °F -17.1 °F -7.6 °F 61% 30.14 in 10.0 mi NNW 18.4 mph 24.2 mph N/A   Clear
1:54 AM 3.2 °F -15.9 °F -7.6 °F 61% 30.15 in 10.0 mi NNW 16.1 mph - N/A   Clear
2:14 AM 3.2 °F -17.1 °F -7.6 °F 61% 30.16 in 10.0 mi NNW 18.4 mph 24.2 mph N/A   Clear
2:34 AM 3.2 °F -16.5 °F -7.6 °F 61% 30.17 in 10.0 mi NNW 17.3 mph 24.2 mph N/A   Clear
2:53 AM 3.2 °F -16.5 °F -7.6 °F 61% 30.18 in 10.0 mi NNW 17.3 mph 23.0 mph N/A   Clear
3:13 AM 3.2 °F -16.5 °F -7.6 °F 61% 30.18 in 10.0 mi NNW 17.3 mph 24.2 mph N/A   Clear
3:34 AM 1.4 °F -17.6 °F -7.6 °F 66% 30.19 in 10.0 mi NNW 15.0 mph 26.5 mph N/A   Clear
3:54 AM 1.4 °F -17.6 °F -7.6 °F 66% 30.20 in 10.0 mi NNW 15.0 mph 25.3 mph N/A   Clear
4:14 AM -0.4 °F -22.3 °F -9.4 °F 66% 30.21 in 10.0 mi NNW 19.6 mph - N/A   Clear
4:34 AM -0.4 °F -21.7 °F -9.4 °F 66% 30.23 in 10.0 mi NNW 18.4 mph - N/A   Clear
4:53 AM -2.2 °F -22.9 °F -9.4 °F 71% 30.24 in 10.0 mi NNW 16.1 mph - N/A   Clear
5:14 AM -2.2 °F -22.9 °F -11.2 °F 66% 30.25 in 10.0 mi NNW 16.1 mph 23.0 mph N/A   Clear
5:33 AM -2.2 °F -23.5 °F -11.2 °F 66% 30.25 in 10.0 mi NNW 17.3 mph - N/A   Clear
5:54 AM -4.0 °F -25.8 °F -11.2 °F 71% 30.26 in 10.0 mi NNW 17.3 mph 21.9 mph N/A   Clear
6:14 AM -4.0 °F -23.7 °F -11.2 °F 71% 30.27 in 10.0 mi NNW 13.8 mph - N/A   Clear
6:33 AM -4.0 °F -23.7 °F -11.2 °F 71% 30.28 in 10.0 mi NNW 13.8 mph 20.7 mph N/A   Clear
6:54 AM -5.8 °F -26.8 °F -11.2 °F 77% 30.29 in 10.0 mi NNW 15.0 mph 21.9 mph N/A   Clear
7:14 AM -5.8 °F -27.5 °F -11.2 °F 77% 30.30 in 10.0 mi NNW 16.1 mph 21.9 mph N/A   Clear
7:33 AM -5.8 °F -26.8 °F -13.0 °F 71% 30.31 in 10.0 mi NNW 15.0 mph 20.7 mph N/A   Clear
7:53 AM -5.8 °F -26.0 °F -13.0 °F 71% 30.32 in 10.0 mi NNW 13.8 mph - N/A   Clear
8:14 AM -5.8 °F -29.4 °F -13.0 °F 71% 30.33 in 10.0 mi NNW 19.6 mph 23.0 mph N/A   Clear
8:34 AM -4.0 °F -27.0 °F -13.0 °F 65% 30.33 in 10.0 mi NNW 19.6 mph 25.3 mph N/A   Clear
8:53 AM -4.0 °F -25.2 °F -13.0 °F 65% 30.34 in 10.0 mi North 16.1 mph 25.3 mph N/A   Clear
9:14 AM -2.2 °F -23.5 °F -11.2 °F 66% 30.36 in 10.0 mi North 17.3 mph 25.3 mph N/A   Clear
9:33 AM -2.2 °F -24.1 °F -11.2 °F 66% 30.36 in 10.0 mi NNW 18.4 mph 25.3 mph N/A   Clear
9:54 AM -0.4 °F -21.7 °F -11.2 °F 60% 30.37 in 10.0 mi NNW 18.4 mph - N/A   Clear
10:14 AM -0.4 °F -21.2 °F -11.2 °F 60% 30.38 in 10.0 mi NNW 17.3 mph 21.9 mph N/A   Clear
10:34 AM -0.4 °F -21.7 °F -11.2 °F 60% 30.38 in 10.0 mi North 18.4 mph - N/A   Clear
10:53 AM 1.4 °F -18.8 °F -9.4 °F 61% 30.39 in 10.0 mi NNW 17.3 mph 21.9 mph N/A   Clear
11:13 AM 1.4 °F -19.4 °F -9.4 °F 61% 30.39 in 10.0 mi NNW 18.4 mph 23.0 mph N/A   Clear
11:34 AM 3.2 °F -16.5 °F -9.4 °F 56% 30.40 in 10.0 mi NNW 17.3 mph - N/A   Clear
11:54 AM 3.2 °F -17.1 °F -9.4 °F 56% 30.40 in 10.0 mi North 18.4 mph 24.2 mph N/A   Clear
12:14 PM 5.0 °F -13.6 °F -9.4 °F 52% 30.40 in 10.0 mi North 16.1 mph 23.0 mph N/A   Clear
12:33 PM 5.0 °F -13.0 °F -11.2 °F 47% 30.40 in 10.0 mi NNW 15.0 mph 26.5 mph N/A   Clear
12:54 PM 6.8 °F -12.4 °F -11.2 °F 44% 30.40 in 10.0 mi NNW 18.4 mph - N/A   Clear
1:14 PM 6.8 °F -13.4 °F -13.0 °F 40% 30.40 in 10.0 mi NNW 20.7 mph - N/A   Clear
1:34 PM 8.6 °F -9.5 °F -14.8 °F 34% 30.40 in 10.0 mi North 17.3 mph 23.0 mph N/A   Clear
1:54 PM 8.6 °F -9.5 °F -14.8 °F 34% 30.40 in 10.0 mi North 17.3 mph 25.3 mph N/A   Clear
2:14 PM 8.6 °F -10.5 °F -14.8 °F 34% 30.40 in 10.0 mi North 19.6 mph 26.5 mph N/A   Clear
2:34 PM 8.6 °F -10.0 °F -13.0 °F 37% 30.41 in 10.0 mi NNW 18.4 mph 24.2 mph N/A   Clear
2:53 PM 10.4 °F -6.0 °F -13.0 °F 34% 30.42 in 10.0 mi North 15.0 mph 24.2 mph N/A   Clear
3:13 PM 10.4 °F -7.7 °F -11.2 °F 37% 30.42 in 10.0 mi North 18.4 mph 25.3 mph N/A   Clear
3:34 PM 10.4 °F -7.2 °F -11.2 °F 37% 30.43 in 10.0 mi NNW 17.3 mph - N/A   Clear
3:54 PM 10.4 °F -5.4 °F -11.2 °F 37% 30.44 in 10.0 mi North 13.8 mph 23.0 mph N/A   Clear
4:14 PM 8.6 °F -8.9 °F -9.4 °F 44% 30.45 in 10.0 mi NNW 16.1 mph - N/A   Clear
4:34 PM 8.6 °F -9.5 °F -9.4 °F 44% 30.46 in 10.0 mi NNW 17.3 mph 23.0 mph N/A   Clear
4:54 PM 6.8 °F -10.7 °F -9.4 °F 48% 30.47 in 10.0 mi NNW 15.0 mph - N/A   Clear
5:13 PM 5.0 °F -13.0 °F -11.2 °F 47% 30.48 in 10.0 mi NW 15.0 mph - N/A   Clear
5:34 PM 3.2 °F -13.9 °F -11.2 °F 51% 30.48 in 10.0 mi NW 12.7 mph 21.9 mph N/A   Clear
5:53 PM 1.4 °F -16.1 °F -11.2 °F 56% 30.49 in 10.0 mi NW 12.7 mph - N/A   Clear
6:14 PM 1.4 °F -17.6 °F -11.2 °F 56% 30.50 in 10.0 mi NNW 15.0 mph 18.4 mph N/A   Clear
6:33 PM 1.4 °F -18.2 °F -13.0 °F 51% 30.51 in 10.0 mi NNW 16.1 mph 20.7 mph N/A   Clear
6:53 PM 1.4 °F -16.1 °F -13.0 °F 51% 30.51 in 10.0 mi NNW 12.7 mph - N/A   Clear
7:14 PM -0.4 °F -18.4 °F -13.0 °F 55% 30.52 in 10.0 mi NNW 12.7 mph - N/A   Clear
7:34 PM -0.4 °F -16.7 °F -13.0 °F 55% 30.53 in 10.0 mi NNW 10.4 mph - N/A   Clear
7:54 PM -0.4 °F -17.6 °F -13.0 °F 55% 30.53 in 10.0 mi NNW 11.5 mph 16.1 mph N/A   Clear
8:14 PM -0.4 °F -16.7 °F -13.0 °F 55% 30.53 in 10.0 mi NNW 10.4 mph - N/A   Clear
8:34 PM -0.4 °F -17.6 °F -13.0 °F 55% 30.54 in 10.0 mi NNW 11.5 mph - N/A   Clear
8:53 PM -2.2 °F -19.9 °F -13.0 °F 60% 30.55 in 10.0 mi NW 11.5 mph - N/A   Clear
9:13 PM -2.2 °F -18.0 °F -11.2 °F 66% 30.56 in 10.0 mi NW 9.2 mph - N/A   Clear
9:34 PM -2.2 °F -16.8 °F -13.0 °F 60% 30.56 in 10.0 mi NW 8.1 mph - N/A   Clear
9:54 PM -2.2 °F -19.9 °F -13.0 °F 60% 30.57 in 10.0 mi NNW 11.5 mph - N/A   Clear
10:14 PM -2.2 °F -18.9 °F -13.0 °F 60% 30.57 in 10.0 mi NNW 10.4 mph - N/A   Clear
10:33 PM -2.2 °F -18.9 °F -13.0 °F 60% 30.58 in 10.0 mi NW 10.4 mph - N/A   Clear
10:54 PM -2.2 °F -18.0 °F -13.0 °F 60% 30.59 in 10.0 mi NW 9.2 mph - N/A   Clear
11:13 PM -4.0 °F -23.0 °F -13.0 °F 65% 30.59 in 10.0 mi NW 12.7 mph - N/A   Clear
11:33 PM -4.0 °F -21.2 °F -13.0 °F 65% 30.59 in 10.0 mi NW 10.4 mph - N/A   Clear
11:54 PM -4.0 °F -21.2 °F -13.0 °F 65% 30.60 in 10.0 mi NW 10.4 mph - N/A   Clear